Regional Weather Roundup
Issued by NWS Upton, NY

Current Version | Previous Version | Text Only | Print | Product List | Glossary On
Versions: 1 2 3 4 5 6 7 8 9 10 11 12 13 14 15 16 17 18 19 20 21 22 23 24 25 26 27 28 29 30 31 32 33 34 35 36 37 38 39 40 41 42 43 44 45 46 47 48 49 50
000
ASUS41 KOKX 111304
RWROKX

REGIONAL WEATHER ROUNDUP
NATIONAL WEATHER SERVICE NEW YORK NY
800 AM EST THU FEB 11 2016

NOTE: "FAIR" INDICATES FEW OR NO CLOUDS BELOW 12,000 FEET WITH NO
SIGNIFICANT WEATHER AND/OR OBSTRUCTIONS TO VISIBILITY.

NYZ071-072-176-178-NJZ106-104-111400-
NEW YORK CITY METRO AREA


CITY           SKY/WX    TMP DP  RH WIND       PRES   REMARKS
CENTRAL PARK   SUNNY     23   1  38 W9G23     29.90R WCI  13
LAGUARDIA APRT MOSUNNY   24   4  42 W13G26    29.89R WCI  12
KENNEDY INTL   MOSUNNY   25   0  33 W16G30    29.90R WCI  12
NEWARK/LIBERTY MOSUNNY   23   2  40 W13G21    29.90R WCI  11
BRNX BOT. GARD   N/A     23   3  42 W14       29.89R WCI  11
TETERBORO      SUNNY     23   1  38 W12G23    29.88R WCI  12
$$

NYZ177-179-078>081-111400-
LONG ISLAND NEW YORK

CITY           SKY/WX    TMP DP  RH WIND       PRES   REMARKS
FARMINGDALE    SUNNY     23   1  38 W17G24    29.87R WCI   9
ISLIP          MOSUNNY   24   2  38 NW22G30   29.82R WCI   9
SHIRLEY        SUNNY     24   6  46 NW18G29   29.83R WCI  10
RIVERHEAD        N/A     27   3  36 NW12      29.79R WCI  16
WESTHAMPTON    MOSUNNY   22   8  55 W12       29.82R WCI  10
EAST HAMPTON   CLOUDY    26  11  53 W9G22     29.77R WCI  16
MONTAUK POINT    N/A     27  17  66 W14G22    29.78R WCI  16
$$

NYZ052-065-067-111400-
HUDSON VALLEY

CITY           SKY/WX    TMP DP  RH WIND       PRES   REMARKS
WHITE PLAINS   MOSUNNY   20   0  41 W21G28    29.83R WCI   4
NEWBURGH       CLEAR     18   5  57 W18       29.83R WCI   2
MONTGOMERY     CLEAR     20   3  48 W9        29.84R WCI   9
POUGHKEEPSIE   CLEAR     22  -3  33 W15G25    29.83R WCI   9
ALBANY         MOCLDY    20   4  50 W16G25    29.80R WCI   6
$$

NJZ001-105-106-008-010-013-015-019>022-104-111400-
NEW JERSEY

CITY           SKY/WX    TMP DP  RH WIND       PRES   REMARKS
NEWARK/LIBERTY MOSUNNY   23   2  40 W13G21    29.90R WCI  11
TETERBORO      SUNNY     23   1  38 W12G23    29.88R WCI  12
CALDWELL       SUNNY     21   0  39 W8G18     29.89R WCI  11
MORRISTOWN     MOSUNNY   21   5  49 W13       29.90R WCI   9
SOMERVILLE     CLEAR     21   4  47 VRB7      29.91R WCI  12
SUSSEX         CLEAR     19   3  49 SW6       29.85R WCI  11
ANDOVER          N/A     17   1  49 VRB6      29.87R WCI   9
TRENTON        PTSUNNY   21   7  54 W10       29.94R WCI  10
MILLVILLE      SUNNY     23   8  52 W17G24    30.00R WCI   9
ATLANTIC CITY  SUNNY     23   7  50 W15G23    29.98R WCI  10
WRIGHTSTOWN    MOSUNNY   22  12  64 W9        29.92R WCI  12
TOMS RIVER     MOSUNNY   23  10  58 W10       29.95R WCI  12
BELMAR         SUNNY     23   3  42 W14       29.91R WCI  11
$$

PAZ047>061-062-071-111400-
EASTERN PENNSYLVANIA

CITY           SKY/WX    TMP DP  RH WIND       PRES   REMARKS
PHILADELPHIA   PTCLDY    22   5  48 W20G26    29.99R WCI   7
ALLENTOWN      PTCLDY    19   5  54 W9G18     29.92R WCI   8
SCRANTON       CLEAR     14   1  56 W13       29.84R WCI   0
$$

CTZ002-004>006-009-010-012-RIZ004-006-007-MAZ004-011-015-111400-
SOUTHERN NEW ENGLAND
 IN CT

CITY           SKY/WX    TMP DP  RH WIND       PRES   REMARKS
BRADLEY INTL   PTSUNNY   21   9  59 W14       29.76R WCI   8
HARTFORD       CLOUDY    24  10  55 NW9G17    29.79R WCI  14
DANBURY        SUNNY     20  -4  34 VRB7G23   29.81R WCI  11
WTRBRY/OXFORD  MOSUNNY   19   1  45 NW7G17    29.75  WCI  10
BRIDGEPORT     MOSUNNY   23   3  42 W14G24    29.82R WCI  11
MERIDEN        CLOUDY    23  10  57 NW10      29.80R WCI  12
NEW HAVEN      MOSUNNY   24   8  50 NW9G20    29.81R WCI  14
CHESTER        PTSUNNY   23  18  80 NW12G18   29.77R WCI  12
GROTON         LGT SNOW  24  20  84 W15       29.77R FOG     WCI  11
WILLIMANTIC    CLOUDY    24  16  71 W10       29.76R WCI  14

 IN RI

CITY           SKY/WX    TMP DP  RH WIND       PRES   REMARKS
PROVIDENCE     PTSUNNY   26  14  60 NW10      29.73R WCI  16
BLOCK ISLAND   CLOUDY    27  23  86 NW12G21   29.73R VSB 3/4 WCI  16
WESTERLY       SNOW      24  20  84 VRB7G17   29.76R VSB 1/2 WCI  16

 IN MA

CITY           SKY/WX    TMP DP  RH WIND       PRES   REMARKS
BOSTON         CLOUDY    26  14  60 W14G20    29.70R WCI  14
WORCESTER      CLOUDY    19  12  74 W15       29.65R WCI   5
WESTFIELD      CLOUDY    20   9  62 W9G21     29.75R WCI   9
PROVINCETOWN   PTSUNNY   31  21  66 NW13      29.69R WCI  21
NANTUCKET      SUNNY     31  20  63 NW12      29.69R WCI  22
$$

ANZ330-335-338-340-345-350-353-355-111400-
COASTAL MARINE OBSERVATIONS


STATION/POSITION TIME  SKY/WX   TEMP    WIND        PRES    VSBY  WAVE
                                AIR SEA DIR/SP/G                  HT/PER
                 (UTC)          (F)     (DEG/KT/KT) (MB)    (MI)  (FT/S)
NY HARB ENTRANCE 1150            27 43  290/ 25/ 29 1010.0          5/ 5
4S FIRE IS       NOT AVBL
20S FIRE ISLAND  1150            29 44  300/ 27/ 35 1009.3          8/ 7
GREAT SOUTH BAY  NOT AVBL
23SW MTP         1150            30 45  290/ 23/ 29 1006.8          6/ 7
HUDSON CANYON    1150            31 48              1009.4         10/ 7
KINGS POINT      1200            24 37  340/ 16/ 24 1010.8
EXECUTION ROCKS  NOT AVBL
CENTRAL LI SOUND 1215            27     280/ 21/ 27   N/A           3/ 5
EASTERN LI SOUND 1200            28 41  290/ 17/ 23   N/A
ROBBINS REEF     1200            23     300/ 20/ 24 1011.0
$$


>>>>>>>>>>>>>>>>>>>>>>>>>>>> KEY <<<<<<<<<<<<<<<<<<<<<<<<<<<
>                                                          <
>     SKY/WX - SKY CONDITION/PRESENT WEATHER               <
>     TMP    - TEMPERATURE IN FAHRENHEIT                   <
>     DP     - DEWPOINT IN FAHRENHEIT                      <
>     RH     - RELATIVE HUMIDITY IN PERCENT                <
>     WIND   - DIRECTION AND SPEED IN MPH                  <
>     PRES   - MEAN SEA LEVEL PRESSURE IN INCHES OF HG     <
>     WCI    - WIND CHILL INDEX                            <
>     VSB    - VISIBILITY IN MILES                         <
>     HX     - HEAT INDEX                                  <
>     TC     - TEMPERATURE IN CELSIUS                      <
>     VRB    - VARIABLE WIND DIRECTION                     <
>                                                          <
>>>>>>>>>>>>>>>>>>>>>>>>>>>> KEY <<<<<<<<<<<<<<<<<<<<<<<<<<<





USA.gov is the U.S. government's official web portal to all federal, state and local government web resources and services.